EW1474 Weather Reports


time (UTC)temp
C
wind
direction
speed
KPH
gust
KPH
rain 1hr
cm
rain 24hr
cm
rain mn
cm
humidity
%
barometer
mb
20260507134322 10 41 4.8 8.0 0.00 0.58 0.58 77 1006.2
20260507133817 10 7 4.8 4.8 0.00 0.58 0.58 77 1006.2
20260507133313 10 44 3.2 8.0 0.00 0.58 0.58 81 1006.3
20260507132812 10 35 1.6 3.2 0.00 0.58 0.58 82 1006.1
20260507132308 10 22 3.2 9.7 0.00 0.58 0.58 83 1006.4
20260507131805 9 22 3.2 9.7 0.00 0.58 0.58 83 1006.0
20260507131302 10 16 3.2 9.7 0.00 0.58 0.58 82 1006.3
20260507130759 9 26 3.2 8.0 0.00 0.58 0.58 83 1006.4
20260507130256 9 24 3.2 8.0 0.00 0.58 0.58 85 1006.4
20260507125755 9 21 4.8 4.8 0.00 0.58 0.58 85 1006.5
20260507125252 9 4 4.8 9.7 0.00 0.58 0.58 85 1006.5
20260507124749 9 280 4.8 12.9 0.00 0.58 0.58 86 1006.3
20260507124245 8 15 6.4 9.7 0.00 0.58 0.58 87 1006.2
20260507123744 8 18 6.4 9.7 0.00 0.58 0.58 87 1005.9
20260507123241 8 26 4.8 9.7 0.00 0.58 0.58 89 1006.3
20260507122737 8 23 4.8 11.3 0.00 0.58 0.58 88 1006.6
20260507122232 8 27 1.6 3.2 0.00 0.58 0.58 91 1006.1
20260507121728 8 331 1.6 4.8 0.00 0.58 0.58 91 1006.2
20260507121224 8 7 1.6 4.8 0.00 0.58 0.58 92 1006.5
20260507120721 7 21 3.2 4.8 0.00 0.58 0.58 94 1006.6
20260507120218 7 40 1.6 1.6 0.00 0.58 0.58 94 1006.9
20260507115714 7 117 1.6 1.6 0.00 0.58 0.58 94 1006.9
20260507115210 7 27 1.6 3.2 0.00 0.58 0.58 96 1006.5
20260507114705 7 53 0.0 1.6 0.00 0.58 0.58 96 1006.7
20260507114203 7 95 0.0 1.6 0.00 0.58 0.58 95 1007.3
20260507113700 7 359 1.6 3.2 0.00 0.58 0.58 94 1007.0
20260507113157 7 289 1.6 4.8 0.00 0.58 0.58 96 1006.6
20260507112655 7 25 3.2 4.8 0.00 0.58 0.58 96 1006.6
20260507112152 7 6 1.6 1.6 0.00 0.58 0.58 95 1007.3
20260507111649 7 315 1.6 3.2 0.00 0.58 0.58 97 1007.2
20260507111145 7 283 1.6 3.2 0.00 0.58 0.58 98 1006.9
20260507110641 7 24 1.6 3.2 0.00 0.58 0.58 98 1006.5
20260507110138 7 356 1.6 4.8 0.00 0.58 0.58 99 1006.4
20260507105635 7 8 3.2 3.2 0.00 0.58 0.58 99 1006.5
20260507105131 6 311 1.6 3.2 0.00 0.58 0.58 99 1006.6
20260507104629 7 307 1.6 1.6 0.00 0.58 0.58 99 1006.1
20260507104125 7 29 0.0 1.6 0.00 0.58 0.58 99 1005.9
20260507103621 7 347 3.2 3.2 0.00 0.58 0.58 99 1006.1
20260507103118 6 51 1.6 3.2 0.00 0.58 0.58 99 1006.3
20260507102615 6 333 1.6 3.2 0.00 0.58 0.58 99 1006.2
20260507102111 6 332 3.2 3.2 0.00 0.58 0.58 99 1006.1
20260507101607 6 10 0.0 1.6 0.00 0.58 0.58 99 1005.9
20260507101103 6 286 1.6 3.2 0.00 0.58 0.58 99 1005.9
20260507100600 6 14 3.2 3.2 0.00 0.58 0.58 99 1006.0
20260507100058 6 307 0.0 3.2 0.00 0.58 0.58 99 1006.4
20260507095556 6 348 0.0 3.2 0.00 0.58 0.58 99 1006.2
20260507095052 6 6 3.2 3.2 0.00 0.58 0.58 99 1005.8
20260507094548 6 349 1.6 1.6 0.00 0.58 0.58 99 1005.7
20260507094046 7 3 1.6 1.6 0.00 0.58 0.58 99 1006.1
20260507093543 7 343 4.8 4.8 0.00 0.58 0.58 99 1005.8
20260507093042 7 27 0.0 1.6 0.00 0.58 0.58 99 1006.1
20260507092537 7 22 0.0 0.0 0.00 0.58 0.58 99 1006.4
20260507092034 7 312 1.6 1.6 0.00 0.58 0.58 99 1006.2
20260507091531 7 333 1.6 3.2 0.00 0.58 0.58 99 1005.8
20260507091028 7 11 0.0 0.0 0.00 0.58 0.58 99 1005.7
20260507090523 7 312 1.6 3.2 0.00 0.58 0.58 99 1005.7
20260507090020 7 20 0.0 3.2 0.00 0.58 0.58 99 1005.4
20260507085517 7 349 3.2 4.8 0.00 0.58 0.58 99 1005.8
20260507085014 7 12 1.6 3.2 0.00 0.58 0.58 99 1005.5
20260507084511 7 11 0.0 3.2 0.00 0.58 0.58 99 1005.8
20260507084008 7 318 0.0 3.2 0.00 0.58 0.58 99 1005.5
20260507083504 7 12 0.0 4.8 0.00 0.58 0.58 99 1005.5
20260507083001 7 33 3.2 3.2 0.00 0.58 0.58 99 1005.3
20260507082457 7 13 3.2 8.0 0.00 0.58 0.58 99 1005.7
20260507081953 8 274 1.6 1.6 0.00 0.58 0.58 99 1005.6
20260507081449 8 4 1.6 1.6 0.00 0.58 0.58 99 1005.4
20260507080947 8 37 3.2 3.2 0.00 0.58 0.58 99 1005.5
20260507080443 8 313 0.0 3.2 0.13 0.58 0.58 99 1005.6
20260507075938 8 9 1.6 1.6 0.13 0.58 0.58 99 1005.4
20260507075435 8 318 1.6 3.2 0.00 0.56 0.56 99 1005.3
20260507074931 8 310 1.6 3.2 0.18 0.56 0.56 99 1005.4
20260507074428 8 294 1.6 1.6 0.18 0.56 0.56 99 1005.3
20260507073926 8 344 3.2 3.2 0.00 0.53 0.53 99 1005.1
20260507073422 8 27 1.6 3.2 0.13 0.53 0.53 99 1005.3
20260507072919 8 5 0.0 1.6 0.13 0.53 0.53 99 1005.3
20260507072417 8 13 0.0 1.6 0.18 0.51 0.51 99 1005.3
20260507071914 8 358 0.0 1.6 0.30 0.51 0.51 99 1005.3
20260507071411 8 27 0.0 1.6 0.13 0.48 0.48 99 1005.0
20260507070907 8 21 1.6 4.8 0.18 0.46 0.46 99 1004.8
20260507070405 8 352 1.6 4.8 0.30 0.46 0.46 99 1004.8
20260507065901 8 20 4.8 8.0 0.13 0.43 0.43 99 1004.7
20260507065358 8 50 3.2 4.8 0.18 0.41 0.41 99 1004.8
20260507064855 8 36 3.2 4.8 0.30 0.41 0.41 99 1004.6
20260507064353 8 38 3.2 4.8 0.30 0.38 0.38 99 1004.4
20260507063851 8 11 0.0 3.2 0.36 0.36 0.36 99 1004.4
20260507063348 8 24 4.8 8.0 0.30 0.33 0.33 99 1004.3
20260507062845 8 20 3.2 9.7 0.30 0.30 0.30 99 1004.3
20260507062341 8 21 3.2 8.0 0.30 0.28 0.28 99 1004.3
20260507061839 9 354 0.0 1.6 0.30 0.25 0.25 99 1004.7
20260507061337 9 25 1.6 4.8 0.48 0.23 0.23 99 1005.1
20260507060835 9 343 3.2 3.2 0.43 0.20 0.20 99 1005.1
20260507060332 9 10 1.6 4.8 0.30 0.15 0.15 99 1005.2
20260507055828 10 297 4.8 8.0 0.30 0.13 0.13 99 1005.3
20260507055323 10 275 1.6 3.2 0.13 0.10 0.10 99 1004.9
20260507054820 10 337 0.0 3.2 0.00 0.08 0.08 99 1004.4
20260507054316 10 358 0.0 1.6 0.00 0.08 0.08 99 1004.1
20260507053814 10 259 1.6 3.2 0.00 0.08 0.08 99 1004.2
20260507053312 10 305 1.6 3.2 0.00 0.08 0.08 99 1004.1
20260507052811 10 351 0.0 1.6 0.00 0.08 0.08 99 1004.4
20260507052307 10 227 6.4 9.7 0.00 0.08 0.08 99 1004.6
20260507051805 10 258 3.2 8.0 0.00 0.08 0.08 99 1004.6
20260507051302 10 230 1.6 1.6 0.00 0.08 0.08 99 1004.4
20260507050758 10 336 1.6 1.6 0.00 0.08 0.08 99 1004.2
20260507050255 10 43 0.0 1.6 0.18 0.08 0.08 99 1004.3
20260507045751 10 24 0.0 0.0 0.18 0.08 0.08 99 1004.2
20260507045247 10 35 0.0 0.0 0.18 0.05 0.05 99 1004.3
20260507044745 10 26 0.0 0.0 0.18 0.05 0.05 99 1004.3
20260507044242 10 357 0.0 1.6 0.00 0.03 0.03 99 1004.3
20260507043738 10 97 1.6 1.6 0.00 0.03 0.03 99 1004.4
20260507043235 10 80 0.0 1.6 0.00 0.03 0.03 99 1004.4
20260507042731 10 101 0.0 1.6 0.00 0.03 0.03 99 1004.4
20260507042226 10 119 1.6 3.2 0.00 0.03 0.03 99 1004.4
20260507041724 10 99 0.0 3.2 0.00 0.03 0.03 99 1004.4
20260507041220 10 64 0.0 1.6 0.13 0.03 0.03 99 1004.6
20260507040717 10 311 0.0 3.2 0.13 0.03 0.03 99 1004.5
20260507040213 10 98 1.6 3.2 0.00 0.00 0.00 99 1004.5
20260507035709 10 61 0.0 3.2 0.00 1.70 1.70 99 1004.3
20260507035205 10 82 0.0 1.6 0.00 1.70 1.70 99 1004.6
20260507034702 10 59 0.0 1.6 0.00 1.70 1.70 99 1004.5
20260507034200 10 70 0.0 1.6 0.00 1.70 1.70 99 1004.4
20260507033658 10 57 1.6 3.2 0.00 1.70 1.70 99 1004.6
20260507033155 10 142 1.6 3.2 0.00 1.70 1.70 99 1004.6
20260507032652 10 194 4.8 4.8 0.00 1.70 1.70 99 1004.7
20260507032148 11 121 1.6 4.8 0.00 1.70 1.70 99 1004.9
20260507031645 11 208 1.6 3.2 0.00 1.70 1.70 99 1004.5
20260507031141 11 121 4.8 4.8 0.00 1.70 1.70 99 1004.9
20260507030638 11 145 1.6 3.2 0.18 1.70 1.70 99 1005.0
20260507030136 11 75 0.0 1.6 0.18 1.70 1.70 99 1005.1
20260507025633 11 95 1.6 1.6 0.13 1.68 1.68 99 1005.1
20260507025130 10 92 0.0 1.6 0.30 1.68 1.68 99 1005.1
20260507024628 10 202 1.6 8.0 0.18 1.65 1.65 99 1005.3
20260507024125 10 87 0.0 1.6 0.13 1.63 1.63 99 1005.5
20260507023620 10 78 0.0 0.0 0.30 1.63 1.63 99 1005.5
20260507023118 10 79 0.0 0.0 0.30 1.60 1.60 99 1005.4
20260507022615 10 94 0.0 1.6 0.43 1.57 1.57 99 1005.6
20260507022110 10 80 0.0 1.6 0.30 1.52 1.52 99 1005.5
20260507021607 10 92 0.0 1.6 0.30 1.50 1.50 99 1005.8
20260507021103 10 105 0.0 1.6 0.48 1.47 1.47 99 1005.7
20260507020602 11 92 0.0 0.0 0.48 1.45 1.45 99 1005.8
20260507020057 11 159 1.6 3.2 0.30 1.40 1.40 99 1006.0
20260507015556 11 113 0.0 1.6 0.30 1.37 1.37 99 1005.9
20260507015053 11 96 0.0 1.6 0.43 1.35 1.35 99 1006.3
20260507014549 11 103 0.0 1.6 0.48 1.32 1.32 99 1006.2
20260507014045 11 123 1.6 3.2 0.30 1.27 1.27 99 1006.3
20260507013542 11 111 1.6 1.6 0.30 1.24 1.24 99 1006.4
20260507013039 11 99 0.0 1.6 0.48 1.22 1.22 99 1006.3
20260507012536 11 94 0.0 1.6 0.43 1.19 1.19 99 1006.4
20260507012032 11 96 0.0 1.6 0.30 1.14 1.14 99 1006.4
20260507011530 11 85 0.0 1.6 0.48 1.12 1.12 99 1006.6
20260507011026 11 92 0.0 1.6 0.48 1.09 1.09 99 1006.9
20260507010520 11 114 1.6 3.2 0.48 1.04 1.04 99 1007.0
20260507010017 11 83 0.0 1.6 0.43 1.02 1.02 99 1007.1
20260507005514 11 120 1.6 1.6 0.43 0.97 0.97 99 1007.4
20260507005005 11 116 0.0 1.6 0.48 0.94 0.94 99 1007.0
20260507004502 11 77 1.6 1.6 0.30 0.89 0.89 99 1007.5
20260507004000 11 123 1.6 3.2 0.30 0.86 0.86 99 1007.2
20260507003454 11 113 0.0 1.6 0.30 0.84 0.84 99 1007.3
20260507002949 11 96 1.6 3.2 0.13 0.81 0.81 99 1007.3
20260507002446 11 126 1.6 4.8 0.18 0.79 0.79 99 1007.3
20260507001938 11 147 1.6 3.2 0.36 0.79 0.79 99 1007.4
20260507001434 11 104 0.0 3.2 0.30 0.76 0.76 99 1007.4
20260507000932 11 163 1.6 4.8 0.30 0.74 0.74 99 1007.5
20260507000427 11 114 1.6 3.2 0.30 0.71 0.71 99 1007.2
20260506235923 11 137 1.6 4.8 0.13 0.69 0.69 99 1007.4
20260506235420 11 145 1.6 3.2 0.18 0.66 0.66 99 1007.5
20260506234910 11 107 3.2 3.2 0.30 0.66 0.66 99 1007.4
20260506234408 11 244 4.8 4.8 0.13 0.64 0.64 99 1007.4
20260506233906 11 149 1.6 3.2 0.18 0.61 0.61 99 1007.4
20260506233401 11 197 1.6 3.2 0.30 0.61 0.61 99 1007.5
20260506232858 11 172 1.6 1.6 0.30 0.58 0.58 99 1007.6
20260506232354 11 99 0.0 3.2 0.30 0.56 0.56 99 1007.3
20260506231850 11 145 1.6 3.2 0.30 0.53 0.53 99 1007.4
20260506231348 11 96 0.0 4.8 0.36 0.51 0.51 99 1007.7
20260506230846 11 129 0.0 1.6 0.18 0.48 0.48 99 1007.8
20260506230342 11 100 0.0 3.2 0.13 0.46 0.46 99 1007.7
20260506225838 11 141 1.6 1.6 0.13 0.46 0.46 99 1007.9
20260506225336 11 122 1.6 3.2 0.18 0.43 0.43 99 1008.0
20260506224833 11 184 3.2 3.2 0.30 0.43 0.43 99 1007.7
20260506224330 11 149 4.8 4.8 0.13 0.41 0.41 99 1007.7
20260506223826 11 164 1.6 3.2 0.18 0.38 0.38 99 1007.8
20260506223321 11 141 1.6 8.0 0.30 0.38 0.38 99 1007.9
20260506222819 11 143 1.6 3.2 0.30 0.36 0.36 99 1008.0
20260506222314 11 180 3.2 8.0 0.30 0.33 0.33 99 1008.1
20260506221813 11 113 1.6 4.8 0.30 0.30 0.30 99 1008.1
20260506221310 11 235 3.2 4.8 0.30 0.28 0.28 99 1008.3
20260506220807 11 121 1.6 3.2 0.30 0.25 0.25 99 1008.5
20260506220302 11 157 1.6 3.2 0.30 0.23 0.23 99 1008.9
20260506215759 11 216 4.8 9.7 0.13 0.20 0.20 99 1008.8
20260506215255 11 178 3.2 8.0 0.18 0.18 0.18 99 1008.8
20260506214751 12 216 1.6 3.2 0.36 0.18 0.18 99 1008.8
20260506214248 12 132 1.6 3.2 0.18 0.15 0.15 99 1008.6
20260506213746 12 158 1.6 8.0 0.00 0.13 0.13 99 1008.8
20260506213243 12 140 1.6 3.2 0.13 0.13 0.13 99 1008.8
20260506212740 12 117 4.8 4.8 0.30 0.13 0.13 99 1008.6
20260506212236 12 172 1.6 9.7 0.30 0.10 0.10 99 1008.8
20260506211731 12 140 1.6 4.8 0.13 0.08 0.08 99 1009.0
20260506211228 12 92 0.0 1.6 0.18 0.05 0.05 99 1008.8
20260506210725 12 158 1.6 3.2 0.30 0.05 0.05 99 1009.2
20260506210222 12 288 0.0 3.2 0.13 0.03 0.03 98 1009.0
20260506205719 12 172 1.6 3.2 0.00 0.00 0.00 96 1008.9
20260506205214 12 248 1.6 1.6 0.00 0.00 0.00 95 1009.1
20260506204712 12 241 1.6 3.2 0.00 0.00 0.00 94 1009.0
20260506204209 12 76 0.0 1.6 0.00 0.00 0.00 94 1008.9
20260506203707 13 160 1.6 3.2 0.00 0.00 0.00 91 1008.9
20260506203204 13 213 3.2 3.2 0.00 0.00 0.00 90 1009.3
20260506202702 13 145 1.6 8.0 0.00 0.00 0.00 89 1009.2
20260506202157 13 96 0.0 4.8 0.00 0.00 0.00 89 1009.0
20260506201654 13 118 1.6 3.2 0.00 0.00 0.00 89 1008.8
20260506201150 13 80 0.0 4.8 0.00 0.00 0.00 89 1008.7
20260506200648 13 194 1.6 9.7 0.00 0.00 0.00 89 1008.9
20260506200144 13 248 3.2 3.2 0.00 0.00 0.00 89 1009.2
20260506195641 13 75 1.6 3.2 0.00 0.00 0.00 89 1008.7
20260506195137 13 144 3.2 3.2 0.00 0.00 0.00 88 1009.0
20260506194635 13 200 4.8 4.8 0.00 0.00 0.00 89 1009.2
20260506194131 13 197 3.2 4.8 0.00 0.00 0.00 89 1009.6
20260506193629 13 215 3.2 8.0 0.00 0.00 0.00 88 1009.3
20260506193126 13 179 1.6 8.0 0.00 0.00 0.00 89 1008.9
20260506192622 13 148 3.2 8.0 0.00 0.00 0.00 88 1008.9
20260506192118 13 161 1.6 8.0 0.00 0.00 0.00 88 1009.5
20260506191615 13 227 1.6 4.8 0.00 0.00 0.00 88 1009.0
20260506191111 13 133 0.0 1.6 0.00 0.00 0.00 88 1009.3
20260506190609 13 149 1.6 4.8 0.00 0.00 0.00 88 1009.0
20260506190105 13 176 1.6 8.0 0.00 0.00 0.00 87 1009.5
20260506185603 13 201 1.6 3.2 0.00 0.00 0.00 88 1009.2
20260506185059 13 203 3.2 4.8 0.00 0.00 0.00 88 1009.3
20260506184556 13 147 1.6 4.8 0.00 0.00 0.00 87 1009.4
20260506184054 13 135 3.2 4.8 0.00 0.00 0.00 87 1009.4
20260506183549 13 179 3.2 4.8 0.00 0.00 0.00 87 1009.4
20260506183046 13 244 4.8 4.8 0.00 0.00 0.00 87 1009.6
20260506182544 13 142 3.2 3.2 0.00 0.00 0.00 87 1009.6
20260506182041 13 99 1.6 3.2 0.00 0.00 0.00 87 1009.5
20260506181539 13 122 1.6 4.8 0.00 0.00 0.00 87 1009.5
20260506181035 13 102 0.0 1.6 0.00 0.00 0.00 87 1009.7
20260506180532 13 132 1.6 3.2 0.00 0.00 0.00 87 1009.7
20260506180028 13 128 1.6 1.6 0.00 0.00 0.00 88 1009.9
20260506175525 13 174 1.6 1.6 0.00 0.00 0.00 88 1010.0
20260506175021 13 70 1.6 3.2 0.00 0.00 0.00 88 1010.1
20260506174520 13 118 1.6 3.2 0.00 0.00 0.00 88 1009.8
20260506174016 13 175 3.2 8.0 0.00 0.00 0.00 89 1010.2
20260506173514 13 145 1.6 9.7 0.00 0.00 0.00 89 1010.2
20260506173010 13 187 3.2 8.0 0.00 0.00 0.00 88 1010.2
20260506172508 13 103 0.0 3.2 0.00 0.00 0.00 89 1010.2
20260506172004 13 212 3.2 4.8 0.00 0.00 0.00 89 1010.3
20260506171501 13 147 1.6 4.8 0.00 0.00 0.00 89 1010.3
20260506170959 13 110 0.0 3.2 0.00 0.00 0.00 89 1010.1
20260506170455 13 64 0.0 3.2 0.00 0.00 0.00 89 1010.2
20260506165948 13 140 3.2 4.8 0.00 0.00 0.00 90 1010.4
20260506165447 13 136 4.8 4.8 0.00 0.00 0.00 90 1010.4
20260506164942 13 211 4.8 4.8 0.00 0.00 0.00 90 1010.9
20260506164439 13 215 4.8 4.8 0.00 0.00 0.00 90 1010.8
20260506163937 13 182 3.2 4.8 0.00 0.00 0.00 90 1010.9
20260506163431 13 140 1.6 3.2 0.00 0.00 0.00 90 1010.9
20260506162926 13 139 1.6 3.2 0.00 0.00 0.00 90 1010.8
20260506162424 13 138 0.0 4.8 0.00 0.00 0.00 90 1011.0
20260506161921 13 176 4.8 4.8 0.00 0.00 0.00 90 1011.0
20260506161420 13 244 4.8 8.0 0.00 0.00 0.00 90 1010.9
20260506160911 13 101 3.2 4.8 0.00 0.00 0.00 90 1011.1
20260506160408 13 77 1.6 4.8 0.00 0.00 0.00 90 1010.9
20260506155906 13 92 1.6 3.2 0.00 0.00 0.00 90 1011.0
20260506155403 13 201 1.6 1.6 0.00 0.00 0.00 90 1010.9
20260506153525 13 88 1.6 4.8 0.00 0.00 0.00 90 1010.5
20260506153023 13 164 1.6 1.6 0.00 0.00 0.00 90 1010.5
20260506152519 13 202 4.8 4.8 0.00 0.00 0.00 90 1010.6
20260506152018 13 179 1.6 4.8 0.00 0.00 0.00 91 1010.7
20260506151515 13 121 4.8 4.8 0.00 0.00 0.00 91 1010.8
20260506151012 13 125 1.6 3.2 0.00 0.00 0.00 91 1010.8
20260506150508 13 216 3.2 8.0 0.00 0.00 0.00 91 1011.1
20260506150005 13 203 1.6 4.8 0.00 0.00 0.00 90 1011.2
20260506145502 13 150 3.2 4.8 0.00 0.00 0.00 89 1011.2
20260506144959 13 207 1.6 4.8 0.00 0.00 0.00 89 1011.4
20260506144456 13 193 3.2 3.2 0.00 0.00 0.00 88 1011.5
20260506143954 13 60 1.6 4.8 0.00 0.00 0.00 87 1011.6
20260506143451 14 203 4.8 8.0 0.00 0.00 0.00 87 1011.5
20260506142949 14 189 4.8 4.8 0.00 0.00 0.00 85 1011.6
20260506142446 15 106 1.6 4.8 0.00 0.00 0.00 83 1011.3
20260506141944 15 204 3.2 4.8 0.00 0.00 0.00 83 1011.2
20260506141442 14 116 1.6 3.2 0.00 0.00 0.00 85 1011.2
20260506140941 14 150 1.6 3.2 0.00 0.00 0.00 85 1011.2
20260506140437 15 106 1.6 3.2 0.00 0.00 0.00 84 1011.2
20260506135934 15 107 1.6 3.2 0.00 0.00 0.00 84 1010.9
20260506135431 14 183 0.0 1.6 0.00 0.00 0.00 86 1011.0
20260506134927 14 85 1.6 1.6 0.00 0.00 0.00 86 1011.0